Weather History for Evansville, IN

Change the Weather History Date:

Sunday, December 18, 2011

  Actual Average Record
Temperature  
Mean Temperature 38 °F 35 °F  
Max Temperature 52 °F 43 °F 68 °F (1924)
Min Temperature 24 °F 26 °F -2 °F (1963)
Degree Days  
Heating Degree Days 27 30  
Month to date heating degree days 457 504  
Since 1 July heating degree days 1191 1365  
Cooling Degree Days 0 0  
Month to date cooling degree days 0 0  
Year to date cooling degree days 1646 1397  
Moisture  
Dew Point 30 °F    
Average Humidity 73    
Maximum Humidity 92    
Minimum Humidity 54    
Precipitation  
Precipitation 0.00 in 0.11 in 1.17 in (1957)
Month to date precipitation 4.31 2.27  
Year to date precipitation 68.30 43.82  
Snow  
Snow 0.00 in 0.10 in 0.70 in (1954)
Month to date snowfall 0.0 1.5  
Since 1 July snowfall 0.1 1.8  
Snow Depth 0.00 in    
Sea Level Pressure  
Sea Level Pressure 30.29 in    
Wind  
Wind Speed 4 mph (SSW)    
Max Wind Speed 13 mph    
Max Gust Speed 16 mph    
Visibility 8 miles    
Events      
T = Trace of Precipitation, MM = Missing Value Source: NWS Daily Summary

Daily Weather History Graph

Daily Weather History Graph

Search for Another Location

Airport:

Trip Planner

Search our weather history database for the weather conditions in past years. The results will help you decide how hot, cold, wet, or windy it might be!

Date:

Astronomy

Dec. 18, 2011 Rise Set
Actual Time 7:00 AM CST 4:32 PM CST
Civil Twilight 6:31 AM CST 5:02 PM CST
Nautical Twilight 5:58 AM CST 5:35 PM CST
Astronomical Twilight 5:26 AM CST 6:07 PM CST
Moon 12:06 AM CST (12/18) 11:53 AM CST (12/18)
Length of Visible Light 10h 30m
Length of Day
9h 31m
Last Quarter, 42% of the Moon is Illuminated
Dec 18
Last Quarter
Dec 24
New
Jan 1
First Quarter
Jan 9
Full
Jan 16
Last Quarter

Hourly Weather History & Observations

Time (CST) Temp. Windchill Dew Point Humidity Pressure Visibility Wind Dir Wind Speed Gust Speed Precip Events Conditions
12:54 AM 28.0 °F - 25.0 °F 88% 30.33 in 9.0 mi Calm Calm - N/A   Clear
1:54 AM 28.9 °F - 25.0 °F 85% 30.32 in 8.0 mi Calm Calm - N/A   Clear
2:54 AM 28.0 °F - 25.0 °F 88% 30.33 in 7.0 mi Calm Calm - N/A   Clear
3:54 AM 30.0 °F - 27.0 °F 88% 30.33 in 8.0 mi Calm Calm - N/A   Clear
4:54 AM 25.0 °F - 23.0 °F 92% 30.33 in 7.0 mi Calm Calm - N/A   Clear
5:33 AM 26.6 °F - 24.8 °F 93% 30.32 in 1.5 mi Calm Calm - N/A   Clear
5:40 AM 26.6 °F - 24.8 °F 93% 30.32 in 1.0 mi Calm Calm - N/A   Clear
5:43 AM 26.6 °F - 24.8 °F 93% 30.32 in 2.0 mi Calm Calm - N/A   Clear
5:50 AM 26.6 °F - 24.8 °F 93% 30.32 in 4.0 mi Calm Calm - N/A   Clear
5:54 AM 26.1 °F - 24.1 °F 92% 30.34 in 4.0 mi Calm Calm - N/A   Clear
6:54 AM 24.1 °F - 23.0 °F 96% 30.35 in 5.0 mi Calm Calm - N/A   Clear
7:54 AM 27.0 °F - 25.0 °F 92% 30.36 in 6.0 mi Calm Calm - N/A   Clear
8:54 AM 36.0 °F - 33.1 °F 89% 30.36 in 6.0 mi Calm Calm - N/A   Clear
9:54 AM 42.1 °F 39.2 °F 34.0 °F 73% 30.36 in 10.0 mi SSW 4.6 mph - N/A   Clear
10:54 AM 45.0 °F 42.6 °F 35.1 °F 68% 30.36 in 10.0 mi SSW 4.6 mph - N/A   Clear
11:54 AM 46.9 °F - 35.1 °F 63% 30.32 in 10.0 mi SSW 8.1 mph - N/A   Clear
12:54 PM 51.8 °F - 37.4 °F 58% 30.27 in 10.0 mi South 8.1 mph - N/A   Clear
1:54 PM 50.0 °F - 36.0 °F 59% 30.26 in 10.0 mi SSW 10.4 mph - N/A   Clear
2:54 PM 51.1 °F - 36.0 °F 56% 30.25 in 10.0 mi SSW 9.2 mph - N/A   Clear
3:54 PM 48.9 °F - 35.1 °F 59% 30.24 in 10.0 mi SSW 8.1 mph - N/A   Clear
4:54 PM 48.0 °F - 35.1 °F 61% 30.23 in 10.0 mi SSW 6.9 mph - N/A   Clear
5:54 PM 46.9 °F - 34.0 °F 61% 30.23 in 10.0 mi South 3.5 mph - N/A   Clear
6:54 PM 46.0 °F 43.9 °F 34.0 °F 63% 30.23 in 10.0 mi South 4.6 mph - N/A   Clear
7:54 PM 46.0 °F 41.9 °F 34.0 °F 63% 30.21 in 10.0 mi South 8.1 mph - N/A   Clear
8:54 PM 44.1 °F 40.1 °F 34.0 °F 68% 30.20 in 10.0 mi SSW 6.9 mph - N/A   Clear
9:54 PM 44.1 °F 39.5 °F 33.1 °F 65% 30.18 in 10.0 mi South 8.1 mph - N/A   Clear
10:54 PM 43.0 °F 38.8 °F 33.1 °F 68% 30.17 in 10.0 mi South 6.9 mph - N/A   Clear
11:54 PM 42.1 °F 38.4 °F 32.0 °F 67% 30.16 in 10.0 mi SSW 5.8 mph - N/A   Clear